sat.trackr.live / text

‹ back to catalog

ECHOSTAR 18

NORAD 41592 · 2016-039B

PAYLOAD ACTIVE UNKNOWN

§ Identity

Operator
Country
US
Launch date
2016-06-18
Launch site
FRGUI
Launch vehicle
Mass (kg)
RCS (m²)
37.71

Purposes: comms

External: N2YO · Heavens-Above · Gunter

§ Orbital elements

Epoch: 2026-09-10T01:44:12.412896Z

Period
1,436.12 min
Inclination
0.0168°
Eccentricity
0.0001472
Mean motion
1.00270308 rev/d
Perigee alt
35,780.8 km
Apogee alt
35,793.2 km
Semi-major
42,165.1 km
B*
0.0000e+0
RAAN
139.6436°
Arg perigee
34.8851°
Mean anomaly
139.2705°
Rev number
3,747

§ Raw data

ECHOSTAR 181 41592U 16039B   26253.07236589 -.00000302  00000+0  00000+0 0  99922 41592   0.0168 139.6436 0001472  34.8851 139.2705  1.00270308 37472

JSON: /api/v1/satellites/41592 · /tle

For live sub-satellite position, see the globe view (requires WebGL).

§ Visibility from observer

Set your observer location to see the next 7 days of passes ≥ 10°. The values pass through the URL so the page stays shareable.

No JS? Fill the form by hand. The geolocation button needs JavaScript.